This demonstration page uses our WeatherBlox Daily Observations layout. Learn more.

Left ArrowRight Arrow

31.31129, -92.44514

Hourly Observations for July 23, 2022

Temp ( °F °C ) Dew Point ( °F °C ) Humidity (%) Winds ( mph kmh ) Pressure ( in mb ) Visibility ( mi km ) Precip ( " mm )
12:53 am 00:53 Clear 76 24.4 72 22.2 88 88 Calm 30.04 1017 10 16 0.00 0.00
1:53 am 01:53 Clear 75 23.9 72 22.2 90 90 SE 5 7 30.04 1017 10 16 0.00 0.00
2:53 am 02:53 Clear 75 23.9 72 22.2 90 90 Calm 30.03 1017 10 16 0.00 0.00
3:53 am 03:53 Clear 75 23.9 72 22.2 90 90 Calm 30.04 1017 8 13 0.00 0.00
4:53 am 04:53 Clear 73 22.8 71 21.7 94 94 Calm 30.05 1018 8 13 0.00 0.00
5:53 am 05:53 Clear 73 22.8 72 22.2 96 96 Calm 30.06 1018 8 13 0.00 0.00
6:53 am 06:53 Sunny 74 23.3 72 22.2 94 94 SSE 5 7 30.06 1018 8 13 0.00 0.00
7:53 am 07:53 Sunny 77 25 74 23.3 90 90 SSE 3 6 30.07 1018 10 16 0.00 0.00
8:53 am 08:53 Sunny 82 27.8 76 24.4 82 82 SSW 3 6 30.08 1019 10 16 0.00 0.00
9:53 am 09:53 Mostly Sunny 85 29.4 76 24.4 75 75 VRB 3 6 30.08 1019 10 16 0.00 0.00
10:53 am 10:53 Sunny 89 31.7 72 22.2 57 57 VRB 3 6 30.08 1019 10 16 0.00 0.00
11:53 am 11:53 Mostly Sunny 91 32.8 71 21.7 52 52 undefined N/A 30.08 1019 10 16 0.00 0.00
12:53 pm 12:53 Sunny 93 33.9 70 21.1 47 47 SW 6 9 30.05 1018 10 16 0.00 0.00
1:53 pm 13:53 Sunny 95 35 71 21.7 46 46 W 12 19 30.03 1017 10 16 0.00 0.00
2:53 pm 14:53 Sunny 96 35.6 68 20 40 40 VRB 3 6 30.01 1016 10 16 0.00 0.00
3:53 pm 15:53 Sunny 95 35 69 20.6 43 43 Calm 30.00 1016 10 16 0.00 0.00
4:53 pm 16:53 Partly Cloudy 92 33.3 71 21.7 51 51 SSE 22 35 30.01 1016 10 16 0.00 0.00
5:04 pm 17:04 Windy with Storms Likely 85 29.4 72 22.2 65 65 SSW 25 41 30.01 1016 2 3 0.06 1.52
5:06 pm 17:06 Mostly Cloudy with Thunderstorms 83 28.3 74 23.3 74 74 S 25 41 30.02 1016 1 1 0.21 5.33
5:11 pm 17:11 Mostly Cloudy with Strong Thunderstorms 80 26.7 73 22.8 79 79 SSW 20 31 30.01 1016 0 0 0.38 9.65
5:15 pm 17:15 Mostly Cloudy with Strong Thunderstorms 79 26.1 70 21.1 74 74 S 13 20 30.02 1016 1 1 0.43 10.92
5:23 pm 17:23 Cloudy with Strong Thunderstorms 80 26.7 73 22.8 79 79 SSW 9 15 30.02 1016 2 2 0.49 12.45
5:34 pm 17:34 Cloudy with Thunderstorms 82 27.8 76 24.4 82 82 SSW 6 9 30.02 1016 3 5 0.52 13.21
5:53 pm 17:53 Cloudy with Light Rain 83 28.3 77 25 82 82 SSW 7 11 30.02 1017 8 13 0.52 13.21
6:53 pm 18:53 Sunny 86 30 75 23.9 70 70 S 3 6 30.00 1016 10 16 0.00 0.00
7:53 pm 19:53 Sunny 84 28.9 73 22.8 70 70 S 3 6 30.01 1016 10 16 0.00 0.00
8:53 pm 20:53 Clear 81 27.2 75 23.9 82 82 SSW 5 7 30.01 1016 10 16 0.00 0.00
9:53 pm 21:53 Clear 80 26.7 74 23.3 82 82 S 6 9 30.03 1017 10 16 0.00 0.00
10:53 pm 22:53 Clear 80 26.7 74 23.3 82 82 SSE 7 11 30.05 1018 10 16 0.00 0.00
11:53 pm 23:53 Clear 79 26.1 74 23.3 85 85 SSE 7 11 30.06 1018 10 16 0.00 0.00

Powered by AerisWeather